TimeCDT,TemperatureF,Dew PointF,Humidity,Sea Level PressureIn,VisibilityMPH,Wind Direction,Wind SpeedMPH,Gust SpeedMPH,PrecipitationIn,Events,Conditions,WindDirDegrees,DateUTC
12:15 AM,53.6,48.2,82,30.04,0.8,Calm,Calm,-,N/A,,Overcast,0,2013-06-22 05:15:00
12:35 AM,53.6,48.2,82,30.02,0.8,East,3.5,-,N/A,,Overcast,80,2013-06-22 05:35:00
12:55 AM,53.6,50.0,88,30.02,0.8,East,3.5,-,N/A,,Overcast,80,2013-06-22 05:55:00
1:15 AM,53.6,50.0,88,29.99,0.5,ENE,5.8,-,N/A,,Overcast,70,2013-06-22 06:15:00
1:35 AM,53.6,50.0,88,29.99,1.0,ENE,5.8,-,N/A,,Overcast,70,2013-06-22 06:35:00
1:55 AM,53.6,51.8,94,29.93,1.0,East,12.7,-,N/A,,Overcast,90,2013-06-22 06:55:00
2:15 AM,55.4,51.8,88,29.92,5.0,East,15.0,-,N/A,,Overcast,80,2013-06-22 07:15:00
2:35 AM,55.4,51.8,88,29.91,6.0,East,9.2,-,N/A,,Overcast,80,2013-06-22 07:35:00
2:55 AM,55.4,53.6,94,29.93,7.0,East,8.1,-,N/A,,Overcast,100,2013-06-22 07:55:00
3:15 AM,55.4,53.6,94,29.97,5.0,East,4.6,-,N/A,,Overcast,80,2013-06-22 08:15:00
3:35 AM,57.2,53.6,88,30.00,3.0,East,3.5,-,N/A,,Overcast,90,2013-06-22 08:35:00
3:55 AM,57.2,53.6,88,30.01,4.0,East,3.5,-,N/A,,Overcast,80,2013-06-22 08:55:00
4:15 AM,57.2,55.4,94,30.05,9.0,SSE,4.6,-,N/A,,Overcast,160,2013-06-22 09:15:00
4:35 AM,59.0,55.4,88,30.05,7.0,Calm,Calm,-,N/A,,Overcast,0,2013-06-22 09:35:00
4:55 AM,59.0,55.4,88,30.06,10.0,SSW,3.5,-,N/A,,Overcast,200,2013-06-22 09:55:00
5:15 AM,59.0,55.4,88,30.06,10.0,Calm,Calm,-,N/A,,Overcast,0,2013-06-22 10:15:00
5:35 AM,59.0,55.4,88,30.08,7.0,Calm,Calm,-,N/A,,Overcast,0,2013-06-22 10:35:00
5:55 AM,59.0,55.4,88,30.07,6.0,Calm,Calm,-,N/A,,Overcast,0,2013-06-22 10:55:00
6:15 AM,59.0,55.4,88,30.07,5.0,Calm,Calm,-,N/A,,Overcast,0,2013-06-22 11:15:00
6:35 AM,59.0,55.4,88,30.07,5.0,Calm,Calm,-,N/A,,Overcast,0,2013-06-22 11:35:00
6:55 AM,59.0,55.4,88,30.08,4.0,ENE,3.5,-,N/A,,Overcast,60,2013-06-22 11:55:00
7:15 AM,59.0,55.4,88,30.08,3.0,East,4.6,-,N/A,,Overcast,80,2013-06-22 12:15:00
7:35 AM,59.0,55.4,88,30.08,3.0,East,3.5,-,N/A,,Overcast,100,2013-06-22 12:35:00
7:55 AM,59.0,55.4,88,30.06,4.0,East,6.9,-,N/A,,Overcast,80,2013-06-22 12:55:00
8:15 AM,60.8,57.2,88,30.03,4.0,East,9.2,-,N/A,,Overcast,80,2013-06-22 13:15:00
8:35 AM,60.8,57.2,88,30.01,8.0,East,10.4,-,N/A,,Mostly Cloudy,90,2013-06-22 13:35:00
8:55 AM,62.6,57.2,82,29.99,10.0,East,10.4,-,N/A,,Overcast,80,2013-06-22 13:55:00
9:15 AM,62.6,57.2,82,29.98,10.0,East,9.2,-,N/A,,Overcast,80,2013-06-22 14:15:00
9:35 AM,62.6,57.2,82,29.92,10.0,ENE,15.0,-,N/A,,Overcast,70,2013-06-22 14:35:00
9:55 AM,62.6,57.2,82,29.97,10.0,East,8.1,-,N/A,,Overcast,100,2013-06-22 14:55:00
10:15 AM,62.6,57.2,82,29.98,10.0,ESE,8.1,-,N/A,,Overcast,110,2013-06-22 15:15:00
10:35 AM,62.6,57.2,82,30.01,10.0,SW,3.5,-,N/A,,Overcast,230,2013-06-22 15:35:00
10:55 AM,62.6,57.2,82,30.03,10.0,Calm,Calm,-,N/A,,Overcast,0,2013-06-22 15:55:00
11:15 AM,64.4,59.0,83,30.03,10.0,Calm,Calm,-,N/A,,Overcast,0,2013-06-22 16:15:00
11:35 AM,64.4,59.0,83,30.03,10.0,Calm,Calm,-,N/A,,Overcast,0,2013-06-22 16:35:00
11:55 AM,64.4,60.8,88,30.03,10.0,Calm,Calm,-,N/A,,Overcast,0,2013-06-22 16:55:00
12:15 PM,66.2,59.0,78,30.03,10.0,Calm,Calm,-,N/A,,Overcast,0,2013-06-22 17:15:00
12:35 PM,66.2,60.8,83,30.03,10.0,Calm,Calm,-,N/A,,Overcast,0,2013-06-22 17:35:00
12:55 PM,66.2,60.8,83,30.03,10.0,North,3.5,-,N/A,,Overcast,10,2013-06-22 17:55:00
1:15 PM,66.2,60.8,83,30.03,10.0,Calm,Calm,-,N/A,,Overcast,0,2013-06-22 18:15:00
1:35 PM,66.2,60.8,83,30.03,10.0,NE,4.6,-,N/A,,Overcast,50,2013-06-22 18:35:00
1:55 PM,66.2,60.8,83,30.01,10.0,ENE,4.6,-,N/A,,Overcast,60,2013-06-22 18:55:00
2:15 PM,66.2,60.8,83,30.00,10.0,East,5.8,-,N/A,,Scattered Clouds,80,2013-06-22 19:15:00
2:35 PM,69.8,62.6,78,29.98,10.0,East,5.8,-,N/A,,Clear,80,2013-06-22 19:35:00
2:55 PM,71.6,62.6,73,29.97,10.0,ESE,4.6,-,N/A,,Clear,120,2013-06-22 19:55:00
3:15 PM,71.6,62.6,73,29.97,10.0,SE,3.5,-,N/A,,Partly Cloudy,130,2013-06-22 20:15:00
3:35 PM,71.6,62.6,73,29.98,10.0,SE,5.8,-,N/A,,Mostly Cloudy,140,2013-06-22 20:35:00
3:55 PM,71.6,62.6,73,29.97,10.0,ESE,4.6,-,N/A,,Mostly Cloudy,120,2013-06-22 20:55:00
4:15 PM,71.6,62.6,73,29.97,10.0,East,4.6,-,N/A,,Mostly Cloudy,100,2013-06-22 21:15:00
4:35 PM,71.6,62.6,73,29.97,10.0,East,3.5,-,N/A,,Mostly Cloudy,90,2013-06-22 21:35:00
4:55 PM,71.6,62.6,73,29.97,10.0,East,4.6,-,N/A,,Overcast,90,2013-06-22 21:55:00
5:15 PM,69.8,62.6,78,29.97,10.0,North,3.5,-,N/A,,Overcast,350,2013-06-22 22:15:00
5:35 PM,69.8,62.6,78,29.96,10.0,North,4.6,-,N/A,,Overcast,10,2013-06-22 22:35:00
5:55 PM,66.2,60.8,83,29.94,10.0,NNE,5.8,-,N/A,,Scattered Clouds,30,2013-06-22 22:55:00
6:15 PM,66.2,60.8,83,29.95,10.0,Calm,Calm,-,N/A,,Scattered Clouds,0,2013-06-22 23:15:00
6:35 PM,68.0,60.8,78,29.95,10.0,Calm,Calm,-,N/A,,Mostly Cloudy,0,2013-06-22 23:35:00
6:55 PM,68.0,62.6,83,29.95,10.0,Calm,Calm,-,N/A,,Overcast,0,2013-06-22 23:55:00
7:15 PM,69.8,62.6,78,29.94,10.0,Calm,Calm,-,N/A,,Mostly Cloudy,0,2013-06-23 00:15:00
7:35 PM,71.6,62.6,73,29.93,10.0,SE,4.6,-,N/A,,Mostly Cloudy,140,2013-06-23 00:35:00
7:55 PM,71.6,62.6,73,29.93,10.0,SSE,3.5,-,N/A,,Mostly Cloudy,150,2013-06-23 00:55:00
8:15 PM,71.6,62.6,73,29.93,10.0,Calm,Calm,-,N/A,,Clear,0,2013-06-23 01:15:00
8:35 PM,69.8,62.6,78,29.93,9.0,Calm,Calm,-,N/A,,Clear,0,2013-06-23 01:35:00
8:55 PM,69.8,62.6,78,29.92,10.0,Calm,Calm,-,N/A,,Clear,0,2013-06-23 01:55:00
9:15 PM,69.8,62.6,78,29.91,8.0,Calm,Calm,-,N/A,,Clear,0,2013-06-23 02:15:00
9:35 PM,68.0,62.6,83,29.92,10.0,Calm,Calm,-,N/A,,Clear,0,2013-06-23 02:35:00
9:55 PM,66.2,60.8,83,29.92,10.0,Calm,Calm,-,N/A,,Clear,0,2013-06-23 02:55:00
10:15 PM,66.2,60.8,83,29.90,10.0,Calm,Calm,-,N/A,,Clear,0,2013-06-23 03:15:00
10:35 PM,64.4,60.8,88,29.90,9.0,Calm,Calm,-,N/A,,Clear,0,2013-06-23 03:35:00
10:55 PM,62.6,59.0,88,29.91,8.0,West,3.5,-,N/A,,Clear,280,2013-06-23 03:55:00
11:15 PM,60.8,57.2,88,29.92,8.0,WSW,4.6,-,N/A,,Scattered Clouds,250,2013-06-23 04:15:00
11:35 PM,60.8,55.4,82,29.92,9.0,Calm,Calm,-,N/A,,Overcast,0,2013-06-23 04:35:00
11:55 PM,60.8,57.2,88,29.90,8.0,North,3.5,-,N/A,,Mostly Cloudy,350,2013-06-23 04:55:00